Location: ??
(35.4032°N, 139.3073°E)
Time: 12:05:22
(UTC+00:00)

CZ-2C R/B - Pass Details

Date: 13 April 2024
Orbit: 783 x 869 km, 98.3° (Epoch: 26 May)

Event Time Altitude Azimuth Distance (km) Brightness Sun altitude
Exits shadow 17:04:23 32° 353° (N) 1,413 4.1 -34.2°
Drops below altitude 10° 17:07:11 10° 350° (N) 2,451 5.5 -33.8°
Sets 17:09:31 0° 349° (N) 3,375 6.3 -33.4°
